• In Russia
  • List of Countries
  • For 7 days
  • Water Temperature
  • Satellite Maps
  • Weather Map
  • Weather Widgets
  • user-avatar
    Login

    Hourly Weather Perth

    Today, 21 August, Monday

    Time Temperature Precipitation Wind Pressure Humidity
    00:00 +11°C° 0 mm 1 mps 766 mmHg 84%
    01:00 +10°C° 0 mm 1 mps 766 mmHg 85%
    02:00 +10°C° 0 mm 1 mps 766 mmHg 87%
    03:00 +10°C° 0 mm 1 mps 765 mmHg 88%
    04:00 +9°C° 0 mm 2 mps 765 mmHg 88%
    05:00 +9°C° 0 mm 2 mps 765 mmHg 89%
    06:00 +9°C° 0 mm 2 mps 765 mmHg 87%
    07:00 +10°C° 0 mm 2 mps 765 mmHg 85%
    08:00 +10°C° 0 mm 3 mps 765 mmHg 83%
    09:00 +12°C° 0 mm 3 mps 765 mmHg 77%
    10:00 +14°C° 0 mm 3 mps 765 mmHg 71%
    11:00 +17°C° 0 mm 3 mps 765 mmHg 65%
    12:00 +17°C° 0.1 mm 3 mps 764 mmHg 66%
    13:00 +17°C° 0.1 mm 3 mps 764 mmHg 66%
    14:00 +17°C° 0.1 mm 3 mps 763 mmHg 66%
    15:00 +17°C° 0.1 mm 3 mps 763 mmHg 70%
    16:00 +16°C° 0.1 mm 3 mps 763 mmHg 73%
    17:00 +16°C° 0.1 mm 2 mps 763 mmHg 77%
    18:00 +15°C° 0.1 mm 2 mps 763 mmHg 79%
    19:00 +14°C° 0.1 mm 2 mps 764 mmHg 81%
    20:00 +14°C° 0.1 mm 2 mps 764 mmHg 83%
    21:00 +13°C° 0 mm 2 mps 764 mmHg 83%
    22:00 +13°C° 0 mm 2 mps 764 mmHg 84%
    23:00 +13°C° 0 mm 2 mps 764 mmHg 85%

    Tomorrow, 22 August, Tuesday

    Time Temperature Precipitation Wind Pressure Humidity
    00:00 +12°C° 0 mm 1 mps 764 mmHg 85%
    01:00 +12°C° 0 mm 1 mps 764 mmHg 85%
    02:00 +11°C° 0 mm 1 mps 763 mmHg 85%
    03:00 +11°C° 0 mm 1 mps 763 mmHg 85%
    04:00 +11°C° 0 mm 1 mps 763 mmHg 85%
    05:00 +11°C° 0 mm 1 mps 763 mmHg 86%
    06:00 +11°C° 0 mm 1 mps 763 mmHg 86%
    07:00 +11°C° 0 mm 1 mps 764 mmHg 86%
    08:00 +12°C° 0 mm 1 mps 764 mmHg 86%
    09:00 +14°C° 0 mm 1 mps 764 mmHg 77%
    10:00 +16°C° 0 mm 1 mps 764 mmHg 68%
    11:00 +19°C° 0 mm 1 mps 764 mmHg 59%
    12:00 +19°C° 0 mm 1 mps 764 mmHg 59%
    13:00 +19°C° 0 mm 2 mps 763 mmHg 58%
    14:00 +19°C° 0 mm 3 mps 763 mmHg 58%
    15:00 +18°C° 0 mm 3 mps 763 mmHg 61%
    16:00 +18°C° 0 mm 3 mps 763 mmHg 65%
    17:00 +17°C° 0 mm 2 mps 764 mmHg 69%
    18:00 +16°C° 0 mm 3 mps 764 mmHg 75%
    19:00 +14°C° 0 mm 3 mps 765 mmHg 80%
    20:00 +13°C° 0 mm 3 mps 766 mmHg 86%
    21:00 +12°C° 0 mm 3 mps 766 mmHg 87%
    22:00 +12°C° 0 mm 4 mps 766 mmHg 89%
    23:00 +12°C° 0 mm 4 mps 767 mmHg 91%

    Day after tomorrow, 23 August, Wednesday

    Time Temperature Precipitation Wind Pressure Humidity
    00:00 +11°C° 0 mm 4 mps 767 mmHg 91%
    01:00 +11°C° 0 mm 4 mps 767 mmHg 91%
    02:00 +10°C° 0 mm 4 mps 767 mmHg 91%
    03:00 +10°C° 0 mm 4 mps 767 mmHg 90%
    04:00 +9°C° 0 mm 5 mps 767 mmHg 89%
    05:00 +8°C° 0 mm 5 mps 767 mmHg 88%
    06:00 +9°C° 0 mm 5 mps 767 mmHg 86%
    07:00 +9°C° 0 mm 5 mps 768 mmHg 84%
    08:00 +9°C° 0 mm 5 mps 768 mmHg 83%
    09:00 +12°C° 0 mm 5 mps 768 mmHg 78%
    10:00 +13°C° 0 mm 4 mps 768 mmHg 73%
    11:00 +14°C° 0 mm 4 mps 768 mmHg 69%
    12:00 +15°C° 0 mm 4 mps 768 mmHg 66%
    13:00 +17°C° 0 mm 4 mps 767 mmHg 64%
    14:00 +18°C° 0 mm 3 mps 767 mmHg 61%
    15:00 +17°C° 0 mm 3 mps 767 mmHg 63%
    16:00 +17°C° 0 mm 4 mps 767 mmHg 66%
    17:00 +17°C° 0 mm 4 mps 767 mmHg 68%
    18:00 +14°C° 0 mm 4 mps 768 mmHg 72%
    19:00 +13°C° 0 mm 4 mps 768 mmHg 76%
    20:00 +11°C° 0 mm 4 mps 769 mmHg 81%
    21:00 +11°C° 0 mm 4 mps 769 mmHg 81%
    22:00 +11°C° 0 mm 4 mps 768 mmHg 81%
    23:00 +10°C° 0 mm 4 mps 768 mmHg 81%

    24 August, Thursday

    Time Temperature Precipitation Wind Pressure Humidity
    00:00 +10°C° 0 mm 4 mps 768 mmHg 80%
    01:00 +9°C° 0 mm 5 mps 768 mmHg 80%
    02:00 +9°C° 0 mm 5 mps 768 mmHg 79%
    03:00 +9°C° 0 mm 5 mps 768 mmHg 80%
    04:00 +9°C° 0 mm 5 mps 768 mmHg 81%
    05:00 +8°C° 0 mm 5 mps 768 mmHg 81%
    06:00 +9°C° 0 mm 5 mps 768 mmHg 80%
    07:00 +9°C° 0 mm 5 mps 768 mmHg 79%
    08:00 +9°C° 0 mm 5 mps 768 mmHg 78%
    09:00 +12°C° 0 mm 5 mps 768 mmHg 73%
    10:00 +15°C° 0 mm 4 mps 768 mmHg 68%
    11:00 +18°C° 0 mm 4 mps 768 mmHg 63%
    12:00 +19°C° 0 mm 3 mps 767 mmHg 60%
    13:00 +20°C° 0 mm 3 mps 766 mmHg 57%
    14:00 +21°C° 0 mm 3 mps 765 mmHg 55%
    15:00 +21°C° 0 mm 3 mps 766 mmHg 59%
    16:00 +20°C° 0 mm 4 mps 766 mmHg 63%
    17:00 +19°C° 0 mm 4 mps 766 mmHg 67%
    18:00 +18°C° 0 mm 4 mps 766 mmHg 71%
    19:00 +15°C° 0 mm 4 mps 767 mmHg 76%
    20:00 +14°C° 0 mm 5 mps 767 mmHg 80%
    21:00 +14°C° 0 mm 5 mps 767 mmHg 79%
    22:00 +13°C° 0 mm 5 mps 767 mmHg 78%
    23:00 +13°C° 0 mm 5 mps 767 mmHg 76%

    25 August, Friday

    Time Temperature Precipitation Wind Pressure Humidity
    00:00 +12°C° 0 mm 5 mps 767 mmHg 77%
    01:00 +12°C° 0 mm 5 mps 767 mmHg 77%
    02:00 +10°C° 0 mm 5 mps 767 mmHg 77%
    03:00 +10°C° 0 mm 5 mps 767 mmHg 80%
    04:00 +9°C° 0 mm 5 mps 767 mmHg 82%
    05:00 +9°C° 0 mm 5 mps 767 mmHg 84%
    06:00 +9°C° 0 mm 5 mps 767 mmHg 83%
    07:00 +9°C° 0 mm 5 mps 768 mmHg 81%
    08:00 +10°C° 0 mm 5 mps 768 mmHg 80%
    09:00 +13°C° 0 mm 5 mps 768 mmHg 74%
    10:00 +15°C° 0 mm 4 mps 768 mmHg 68%
    11:00 +18°C° 0 mm 4 mps 768 mmHg 63%
    12:00 +19°C° 0 mm 4 mps 767 mmHg 59%
    13:00 +20°C° 0 mm 4 mps 766 mmHg 55%
    14:00 +21°C° 0 mm 3 mps 766 mmHg 51%
    15:00 +20°C° 0 mm 4 mps 766 mmHg 54%
    16:00 +20°C° 0 mm 4 mps 766 mmHg 57%
    17:00 +19°C° 0 mm 4 mps 766 mmHg 60%
    18:00 +18°C° 0 mm 4 mps 767 mmHg 65%
    19:00 +15°C° 0 mm 5 mps 767 mmHg 69%
    20:00 +14°C° 0 mm 5 mps 768 mmHg 73%
    21:00 +13°C° 0 mm 5 mps 768 mmHg 74%
    22:00 +13°C° 0 mm 6 mps 768 mmHg 74%
    23:00 +13°C° 0 mm 6 mps 768 mmHg 74%

    26 August, Saturday

    Time Temperature Precipitation Wind Pressure Humidity
    00:00 +11°C° 0 mm 6 mps 768 mmHg 78%
    01:00 +11°C° 0 mm 6 mps 768 mmHg 81%
    02:00 +10°C° 0 mm 6 mps 768 mmHg 84%
    03:00 +10°C° 0 mm 6 mps 768 mmHg 86%
    04:00 +9°C° 0 mm 6 mps 768 mmHg 87%
    05:00 +9°C° 0 mm 6 mps 768 mmHg 89%
    06:00 +9°C° 0 mm 6 mps 769 mmHg 87%
    07:00 +10°C° 0 mm 6 mps 769 mmHg 85%
    08:00 +10°C° 0 mm 6 mps 769 mmHg 84%
    09:00 +13°C° 0 mm 6 mps 769 mmHg 77%
    10:00 +15°C° 0 mm 6 mps 769 mmHg 70%
    11:00 +17°C° 0 mm 6 mps 769 mmHg 63%
    12:00 +19°C° 0 mm 6 mps 768 mmHg 61%
    13:00 +19°C° 0 mm 6 mps 768 mmHg 58%
    14:00 +20°C° 0 mm 5 mps 767 mmHg 56%
    15:00 +20°C° 0 mm 5 mps 767 mmHg 58%
    16:00 +19°C° 0 mm 5 mps 767 mmHg 61%
    17:00 +19°C° 0 mm 5 mps 767 mmHg 63%
    18:00 +17°C° 0 mm 5 mps 768 mmHg 65%
    19:00 +16°C° 0 mm 6 mps 768 mmHg 67%
    20:00 +15°C° 0 mm 6 mps 768 mmHg 69%
    21:00 +14°C° 0 mm 6 mps 769 mmHg 69%
    22:00 +14°C° 0 mm 6 mps 769 mmHg 69%
    23:00 +13°C° 0 mm 6 mps 769 mmHg 69%
    Show more